レモン彗星

C/2020 S8 ( Lemmon )

English version
Home page
Updated on December 11, 2020

---------------------------------------------------------------------

・ プロフィール

発見日 2020年9月18日
発見光度 20.1等
発見者 Mount Lemmon Survey

・ 軌道要素

Epoch 2021 Apr. 16.0 TT = JDT 2459320.5
T 2021 Apr. 10.93380 TT                                 Rudenko
q   2.3638763            (2000.0)            P               Q
z  +0.0036779      Peri.  160.33317     -0.81634815     -0.42922386
 +/-0.0000150      Node    24.05111     -0.56860623     +0.47991596
e   0.9913060      Incl.  108.51857     +0.10130479     -0.76514544
From 81 observations 2020 July 29-Nov. 9, mean residual 0".5.

・ 光度変化

        m1 = 12.5 + 5 logΔ + 10.0 log r

---------------------------------------------------------------------

軌道要素はM.P.E.C. 2020-W26に掲載されたものです。
光度グラフはComet for Windowsで作成したものです。

---------------------------------------------------------------------

Copyright(C) Seiichi Yoshida (comet@aerith.net). All rights reserved.